Вернуться в каталог

COSMOS 2251 DEB

АктивенLEO
NORAD 34729·DEBRIS·🇷🇺 Russia

Запущен Jun 16, 1993 с Plesetsk Cosmodrome

Loading…

Ближайшие Пролёты (ближайшие 24 часа)

TLE

СвежийSource: Space-Track

Эпоха: Sep 14, 2026, 13:12 UTC

1 34729U 93036YX  26257.55034324  .00009004  00000-0  93395-3 0  9999
2 34729  74.0149 168.5420 0016800 219.0337 196.2385 14.89990543925572

Отслеживайте COSMOS 2251 DEB в реальном времени с AllMySat

Download on the App Store